Voltar ao catálogo

COSMOS 1275 DEB

AtivoPO
NORAD 42146·DEBRIS·🇷🇺 Russia

Lançado Jun 4, 1981 de Plesetsk Cosmodrome

Loading…

Próximas Passagens (próximas 24 horas)

TLE

EnvelhecendoSource: Space-Track

Época: Sep 9, 2026, 05:37 UTC

1 42146U 81053RJ  26252.23450321  .00001018  00000-0  84654-3 0  9991
2 42146  83.0009  80.0556 0096145 345.5116  14.3292 13.85661819644051

Acompanhe COSMOS 1275 DEB em tempo real com AllMySat

Download on the App Store